Location: Cazarilh
(42.9578°N, 0.5819°E)
Time: 14:13:14
(UTC+00:00)

Okean 1-7 - Pass Details

Date: 11 December 2019
Orbit: 590 x 619 km, 82.5° (Epoch: 25 January)

Event Time Altitude Azimuth Distance (km) Brightness Sun altitude
Exits shadow 05:24:47 38° 330° (NNW) 960 3.7 -20.0°
Maximum altitude 05:26:19 62° 265° (W) 697 3.0 -19.7°
Drops below altitude 10° 05:30:37 10° 185° (S) 1,970 5.7 -19.0°
Sets 05:32:51 0° 182° (S) 2,867 6.6 -18.6°
